Location: Joplin, MO
(37.0842°N, 94.5133°W)
Time: 20:09:39
(UTC+02:00)

Courier 1B Rocket - Pass Details

Date: 09 April 2023
Orbit: 920 x 1202 km, 28.2° (Epoch: 08 June)

Event Time Altitude Azimuth Distance (km) Brightness Sun altitude
Rises 21:06:57 0° 223° (SW) 3,969 8.6 58.7°
Reaches altitude 10° 21:10:13 10° 211° (SSW) 3,048 8.3 58.5°
Maximum altitude 21:16:14 26° 158° (SSE) 2,144 7.6 57.9°
Drops below altitude 10° 21:22:24 10° 106° (ESE) 3,128 7.7 57.3°
Sets 21:25:47 0° 94° (E) 4,093 8.1 57.0°
